Showing default

NUSAT-48 (H. LEAVITT), 60498

Orbit data source: Space-Track

NUSAT-48 (H. LEAVITT), 60498 is a payload satellite owned by URUGUS S.A. (AR) in SSO that was launched on Fri, 16 Aug 2024 UTC via an FALCON 9 launch vehicle from the Air Force Western Test Range (AFWTR). Payloads include a variety of satellites, spacecraft, and rockets equipped with specific instruments for various scientific and technological missions. These include communications satellites like Starlink; space stations such as the ISS; scientific satellites like the Hubble; Earth observation satellites from companies like Planet Labs, Umbra, and HawkEye 360; GPS; miniature CubeSats for education and research; and military/defense satellites.

Loading next visibility...
NUSAT-48 (H. LEAVITT) details
Identifier
60498, 2024-149AG
Orbit
SSO
Last TLE update10 hours ago
Origin
Flag of ARURUGUS S.A. (AR / ARGN)
ManufacturerURUGUS S.A.
MissionOperational spacecraft
Bus & MotorNEWSAT V, Unknown motor
Mass41.5 kg wet, 38.5 kg dry
Launch date (UTC)
2024-08-16 (4 months ago)
Launch vehicle
FALCON 9
Launch site
Air Force Western Test Range (AFWTR)
Object type
Payload
Rocket body
Debris
Shape & HBRUnknown
Radar Cross SectionMedium (>0.1 m² and <1 m²)

Expand to show TLE details & history

TLE from 10 hours ago
0 NUSAT-48 (H. LEAVITT)
1 60498U 24149AG  24356.16413631  .00014439  00000-0  62833-3 0  9998
2 60498  97.4273  69.8941 0006455  54.4563 305.7275 15.22327452 19197
Epoch: 2024-12-21T03:56Z
Definitive object data (Epoch: 2024-12-21T03:56:21.377Z)
Latitude0.00006°
Longitude-79.41421°
Altitude499.324 km
Speed7.616 km/s
True Right ascension04h 39m 34s
True Declination0° 00' 00"
Sunlit
Object was in full shadow at TLE epoch
Visualization TLE readout
Latitude-32.7523°
Longitude96.22988°
Altitude515.374 km
Speed7.602 km/s
Apparent Right ascension20h 06m 03s
Apparent Declination-61° 46' 14"
Sunlit
Object is in daylight
Visualization observer readout
Local Sidereal Time13:22:16
Azimuth143.082° SSE
Elevation-39.364°
Doppler factor1
Orbital elements
Apogee altitude500.223 km
Perigee altitude491.349 km
Semi-major axis6,873.923 km
Eccentricity0.0006455
Inclination97.4273°
RAAN69.8941°
Arg. of periapsis54.4563°
True anomaly305.66742°
Mean anomaly305.7275°
Eccentric anomaly305.69746°
Mean motion3.80834 °/min
BSTAR0.00062833
Orbital period94.53 mins
Loading maneuver chart data...
Loading historical data...
Loading historical data...
Loading historical data...
Loading historical data...
Loading historical data...
Loading historical data...
Loading historical data...

NUSAT-48 (H. LEAVITT) Visibility forecast

Observer location: undefined°, undefined

Span
Click to sort rows by Start time (UTC) header in descending order
Start Az.
Max El. time (UTC)
Max El. Az.
Max El.
End time (UTC)
End Az.
4 mins2024-12-21 17:08:09.725Z50.756° ENE2024-12-21 17:10:09.725Z84.238° E16.619°2024-12-21 17:12:09.725Z124.435° SE
4 mins2024-12-21 18:43:09.725Z319.965° NNW2024-12-21 18:44:09.725Z293.977° NW23.668°2024-12-21 18:47:09.725Z233.548° WSW
5 mins2024-12-22 05:19:09.725Z177.638° S2024-12-22 05:21:09.725Z242.136° WSW43.437°2024-12-22 05:24:09.725Z342.323° N
|